GOTSKAYA Weather Reports


Display with metric or nautical units.
time (UTC)temp
F
wind
direction
speed
MPH
gust
MPH
rain 1hr
in
rain 24hr
in
rain mn
in
humidity
%
barometer
mb
20260504044542 48 210 6.0 12.0 0.00 0.00 0.00 53 1006.5
20260504043042 47 203 5.0 13.0 0.00 0.00 0.00 53 1006.4
20260504041534 47 194 4.0 14.0 0.00 0.00 0.00 53 1006.8
20260504040032 47 78 4.0 11.0 0.00 0.00 0.00 54 1007.0
20260504034530 47 223 4.0 13.0 0.00 0.00 0.00 54 1007.1
20260504033028 47 5 4.0 15.0 0.00 0.00 0.00 54 1007.3
20260504031626 47 215 3.0 19.0 0.00 0.00 0.00 56 1007.7
20260504030026 46 215 3.0 9.0 0.00 0.00 0.00 56 1007.8
20260504024521 46 234 2.0 10.0 0.00 0.00 0.00 56 1008.0
20260504023020 46 64 3.0 9.0 0.00 0.00 0.00 56 1008.2
20260504021517 46 226 3.0 9.0 0.00 0.00 0.00 56 1008.4
20260504020016 46 219 2.0 9.0 0.00 0.00 0.00 56 1008.3
20260504014519 46 137 2.0 9.0 0.00 0.00 0.00 56 1008.6
20260504013029 46 236 1.0 12.0 0.00 0.00 0.00 56 1008.8
20260504011512 47 41 2.0 9.0 0.00 0.00 0.00 55 1008.9
20260504010009 47 205 2.0 14.0 0.00 0.00 0.00 54 1009.0
20260504004508 47 188 2.0 10.0 0.00 0.00 0.00 54 1009.2
20260504003007 47 64 4.0 16.0 0.00 0.00 0.00 54 1009.2
20260504001502 47 22 2.0 12.0 0.00 0.00 0.00 54 1009.4
20260504000120 46 40 3.0 13.0 0.00 0.00 0.00 54 1009.4
20260503234605 46 89 2.0 11.0 0.00 0.00 0.00 53 1009.6
20260503233102 46 61 3.0 16.0 0.00 0.00 0.00 53 1009.8
20260503231553 46 259 3.0 10.0 0.00 0.00 0.00 52 1010.0
20260503230109 46 32 2.0 13.0 0.00 0.00 0.00 52 1010.2
20260503224551 46 210 3.0 10.0 0.00 0.00 0.00 52 1010.6
20260503223045 46 102 2.0 9.0 0.00 0.00 0.00 52 1010.9
20260503221543 46 236 2.0 8.0 0.00 0.00 0.00 52 1011.0
20260503220046 46 128 1.0 8.0 0.00 0.00 0.00 52 1011.2
20260503214539 46 291 1.0 6.0 0.00 0.00 0.00 52 1011.5
20260503213034 47 239 2.0 6.0 0.00 0.00 0.00 52 1011.8
20260503211532 47 244 1.0 10.0 0.00 0.00 0.00 51 1012.0
20260503210030 47 122 1.0 9.0 0.00 0.00 0.00 51 1012.1
20260503204529 47 196 2.0 9.0 0.00 0.00 0.00 51 1012.2
20260503203043 48 240 1.0 7.0 0.00 0.00 0.00 50 1012.3
20260503201530 48 213 2.0 10.0 0.00 0.00 0.00 49 1012.4
20260503200026 49 250 1.0 7.0 0.00 0.00 0.00 48 1012.4
20260503194535 49 206 1.0 9.0 0.00 0.00 0.00 47 1012.6
20260503193020 49 180 1.0 10.0 0.00 0.00 0.00 46 1012.7
20260503191520 50 263 1.0 13.0 0.00 0.00 0.00 45 1012.7
20260503190028 50 360 3.0 14.0 0.00 0.00 0.00 44 1012.9
20260503184523 51 198 4.0 13.0 0.00 0.00 0.00 43 1013.0
20260503183017 51 202 5.0 17.0 0.00 0.00 0.00 42 1013.1
20260503181513 51 315 2.0 15.0 0.00 0.00 0.00 43 1013.4
20260503180013 51 208 2.0 18.0 0.00 0.00 0.00 43 1013.6
20260503174512 52 312 3.0 12.0 0.00 0.00 0.00 43 1013.8
20260503173012 52 329 2.0 10.0 0.00 0.00 0.00 41 1013.9
20260503171509 53 163 3.0 11.0 0.00 0.00 0.00 40 1014.1
20260503140154 62 254 5.0 12.0 0.00 0.01 0.00 27 1014.5
20260503130149 60 212 2.0 13.0 0.00 0.06 0.00 31 1015.0
20260503081522 58 346 6.0 16.0 0.00 0.06 0.00 29 1017.8